Time,TemperatureF,DewpointF,PressureIn,WindDirection,WindDirectionDegrees,WindSpeedMPH,WindSpeedGustMPH,Humidity,HourlyPrecipIn,Conditions,Clouds,dailyrainin,SoftwareType,DateUTC
2013-05-15 00:02:00,74.0,47.0,29.83,SSW,212,3.0,12.0,39,0.00,,,0.00,,2013-05-15 05:02:00,
2013-05-15 00:12:00,73.0,48.0,29.83,SSW,195,3.0,9.0,41,0.00,,,0.00,,2013-05-15 05:12:00,
2013-05-15 00:22:00,73.0,48.0,29.83,SSW,195,3.0,9.0,41,0.00,,,0.00,,2013-05-15 05:22:00,
2013-05-15 00:32:00,73.0,49.0,29.85,SSW,200,5.0,10.0,42,0.00,,,0.00,,2013-05-15 05:32:00,
2013-05-15 00:42:00,73.0,49.0,29.85,SSW,200,5.0,10.0,42,0.00,,,0.00,,2013-05-15 05:42:00,
2013-05-15 00:52:00,72.0,49.0,29.84,SSW,208,3.0,10.0,44,0.00,,,0.00,,2013-05-15 05:52:00,
2013-05-15 01:02:00,72.0,50.0,29.83,SW,234,7.0,9.0,46,0.00,,,0.00,,2013-05-15 06:02:00,
2013-05-15 01:11:00,72.0,51.0,29.84,SW,230,5.0,9.0,48,0.00,,,0.00,,2013-05-15 06:11:00,
2013-05-15 01:21:00,72.0,51.0,29.84,SW,230,5.0,9.0,48,0.00,,,0.00,,2013-05-15 06:21:00,
2013-05-15 01:32:00,72.0,52.0,29.85,SW,225,9.0,12.0,50,0.00,,,0.00,,2013-05-15 06:32:00,
2013-05-15 01:41:00,72.0,53.0,29.85,SW,217,5.0,9.0,51,0.00,,,0.00,,2013-05-15 06:41:00,
2013-05-15 01:52:00,72.0,53.0,29.85,SW,217,5.0,9.0,51,0.00,,,0.00,,2013-05-15 06:52:00,
2013-05-15 02:01:00,72.0,53.0,29.84,SSW,207,8.0,12.0,51,0.00,,,0.00,,2013-05-15 07:01:00,
2013-05-15 02:11:00,72.0,53.0,29.83,SSW,206,5.0,11.0,51,0.00,,,0.00,,2013-05-15 07:11:00,
2013-05-15 02:21:00,72.0,53.0,29.83,SSW,206,5.0,11.0,51,0.00,,,0.00,,2013-05-15 07:21:00,
2013-05-15 02:32:00,72.0,53.0,29.84,SSW,202,5.0,16.0,51,0.00,,,0.00,,2013-05-15 07:32:00,
2013-05-15 02:41:00,72.0,53.0,29.84,SSW,202,5.0,16.0,51,0.00,,,0.00,,2013-05-15 07:41:00,
2013-05-15 02:52:00,71.0,52.0,29.83,SW,219,6.0,14.0,52,0.00,,,0.00,,2013-05-15 07:52:00,
2013-05-15 03:02:00,71.0,52.0,29.84,SW,225,8.0,13.0,52,0.00,,,0.00,,2013-05-15 08:02:00,
2013-05-15 03:12:00,71.0,52.0,29.85,SSW,211,9.0,12.0,52,0.00,,,0.00,,2013-05-15 08:12:00,
2013-05-15 03:21:00,71.0,52.0,29.85,SSW,211,9.0,12.0,52,0.00,,,0.00,,2013-05-15 08:21:00,
2013-05-15 03:32:00,70.0,52.0,29.85,SW,216,7.0,14.0,53,0.00,,,0.00,,2013-05-15 08:32:00,
2013-05-15 03:42:00,70.0,52.0,29.85,SW,235,8.0,17.0,53,0.00,,,0.00,,2013-05-15 08:42:00,
2013-05-15 03:53:00,70.0,52.0,29.85,SW,235,8.0,17.0,53,0.00,,,0.00,,2013-05-15 08:53:00,
2013-05-15 04:01:00,70.0,52.0,29.85,SSW,209,5.0,12.0,53,0.00,,,0.00,,2013-05-15 09:01:00,
2013-05-15 04:11:00,70.0,53.0,29.85,SW,223,7.0,10.0,54,0.00,,,0.00,,2013-05-15 09:11:00,
2013-05-15 04:21:00,70.0,53.0,29.85,SW,223,7.0,10.0,54,0.00,,,0.00,,2013-05-15 09:21:00,
2013-05-15 04:32:00,69.0,52.0,29.87,SW,223,6.0,10.0,55,0.00,,,0.00,,2013-05-15 09:32:00,
2013-05-15 04:42:00,69.0,53.0,29.86,SW,225,6.0,10.0,56,0.00,,,0.00,,2013-05-15 09:42:00,
2013-05-15 04:53:00,69.0,53.0,29.86,SW,225,6.0,10.0,56,0.00,,,0.00,,2013-05-15 09:53:00,
2013-05-15 05:02:00,68.0,53.0,29.87,SW,230,6.0,10.0,58,0.00,,,0.00,,2013-05-15 10:02:00,
2013-05-15 05:12:00,67.0,53.0,29.87,SW,223,4.0,7.0,60,0.00,,,0.00,,2013-05-15 10:12:00,
2013-05-15 05:22:00,67.0,53.0,29.87,SW,223,4.0,7.0,60,0.00,,,0.00,,2013-05-15 10:22:00,
2013-05-15 05:32:00,67.0,53.0,29.87,SSW,213,4.0,6.0,60,0.00,,,0.00,,2013-05-15 10:32:00,
2013-05-15 05:42:00,66.0,52.0,29.88,WSW,239,4.0,6.0,61,0.00,,,0.00,,2013-05-15 10:42:00,
2013-05-15 05:52:00,66.0,52.0,29.88,WSW,239,4.0,6.0,61,0.00,,,0.00,,2013-05-15 10:52:00,
2013-05-15 06:08:00,66.0,53.0,29.87,SSW,207,4.0,4.0,62,0.00,,,0.00,,2013-05-15 11:08:00,
2013-05-15 06:17:00,66.0,53.0,29.87,SSW,212,2.0,6.0,62,0.00,,,0.00,,2013-05-15 11:17:00,
2013-05-15 06:26:00,66.0,53.0,29.87,SSW,212,2.0,6.0,62,0.00,,,0.00,,2013-05-15 11:26:00,
2013-05-15 06:35:00,66.0,53.0,29.87,SSW,210,2.0,6.0,62,0.00,,,0.00,,2013-05-15 11:35:00,
2013-05-15 06:47:00,67.0,53.0,29.88,SW,220,2.0,7.0,61,0.00,,,0.00,,2013-05-15 11:47:00,
2013-05-15 06:58:00,67.0,53.0,29.88,SW,220,2.0,7.0,61,0.00,,,0.00,,2013-05-15 11:58:00,
2013-05-15 07:06:00,68.0,54.0,29.89,South,191,1.0,5.0,60,0.00,,,0.00,,2013-05-15 12:06:00,
2013-05-15 07:13:00,69.0,54.0,29.88,SSW,212,9.0,12.0,58,0.00,,,0.00,,2013-05-15 12:13:00,
2013-05-15 07:27:00,69.0,54.0,29.88,SSW,212,9.0,12.0,58,0.00,,,0.00,,2013-05-15 12:27:00,
2013-05-15 07:35:00,70.0,54.0,29.90,SW,233,4.0,6.0,57,0.00,,,0.00,,2013-05-15 12:35:00,
2013-05-15 07:46:00,70.0,54.0,29.90,SW,233,4.0,6.0,57,0.00,,,0.00,,2013-05-15 12:46:00,
2013-05-15 07:57:00,71.0,54.0,29.89,SSW,206,2.0,8.0,55,0.00,,,0.00,,2013-05-15 12:57:00,
2013-05-15 08:07:00,72.0,54.0,29.89,WSW,244,4.0,7.0,54,0.00,,,0.00,,2013-05-15 13:07:00,
2013-05-15 08:15:00,74.0,56.0,29.91,SW,225,7.0,9.0,53,0.00,,,0.00,,2013-05-15 13:15:00,
2013-05-15 08:24:00,74.0,56.0,29.91,SW,225,7.0,9.0,53,0.00,,,0.00,,2013-05-15 13:24:00,
2013-05-15 08:35:00,74.0,55.0,29.90,SW,224,5.0,10.0,51,0.00,,,0.00,,2013-05-15 13:35:00,
2013-05-15 08:46:00,74.0,55.0,29.90,SW,224,5.0,10.0,51,0.00,,,0.00,,2013-05-15 13:46:00,
2013-05-15 08:58:00,75.0,55.0,29.91,SW,230,5.0,12.0,50,0.00,,,0.00,,2013-05-15 13:58:00,
2013-05-15 09:05:00,75.0,56.0,29.90,SW,221,6.0,12.0,51,0.00,,,0.00,,2013-05-15 14:05:00,
2013-05-15 09:13:00,76.0,57.0,29.92,SW,220,6.0,12.0,51,0.00,,,0.00,,2013-05-15 14:13:00,
2013-05-15 09:25:00,76.0,57.0,29.92,SW,220,6.0,12.0,51,0.00,,,0.00,,2013-05-15 14:25:00,
2013-05-15 09:36:00,77.0,57.0,29.90,NW,306,2.0,9.0,50,0.00,,,0.00,,2013-05-15 14:36:00,
2013-05-15 09:44:00,77.0,57.0,29.90,NW,306,2.0,9.0,50,0.00,,,0.00,,2013-05-15 14:44:00,
2013-05-15 09:58:00,77.0,55.0,29.91,SSW,204,3.0,12.0,47,0.00,,,0.00,,2013-05-15 14:58:00,
2013-05-15 10:07:00,78.0,58.0,29.90,SSW,204,1.0,8.0,50,0.00,,,0.00,,2013-05-15 15:07:00,
2013-05-15 10:27:00,79.0,57.0,29.93,SSW,201,2.0,10.0,47,0.00,,,0.00,,2013-05-15 15:27:00,
2013-05-15 10:36:00,80.0,59.0,29.90,SSW,212,4.0,12.0,48,0.00,,,0.00,,2013-05-15 15:36:00,
2013-05-15 10:47:00,80.0,59.0,29.90,SSW,212,4.0,12.0,48,0.00,,,0.00,,2013-05-15 15:47:00,
2013-05-15 11:00:00,81.0,58.0,29.89,SSW,211,2.0,9.0,46,0.00,,,0.00,,2013-05-15 16:00:00,
2013-05-15 11:19:00,81.0,58.0,29.90,West,264,2.0,9.0,45,0.00,,,0.00,,2013-05-15 16:19:00,
2013-05-15 11:27:00,81.0,58.0,29.90,West,264,2.0,9.0,45,0.00,,,0.00,,2013-05-15 16:27:00,
2013-05-15 11:34:00,82.0,59.0,29.90,SSW,203,4.0,11.0,46,0.00,,,0.00,,2013-05-15 16:34:00,
2013-05-15 11:47:00,82.0,59.0,29.90,SSW,203,4.0,11.0,46,0.00,,,0.00,,2013-05-15 16:47:00,
2013-05-15 11:58:00,83.0,59.0,29.92,SW,234,4.0,5.0,44,0.00,,,0.00,,2013-05-15 16:58:00,
2013-05-15 12:08:00,83.0,59.0,29.89,NW,304,2.0,3.0,45,0.00,,,0.00,,2013-05-15 17:08:00,
2013-05-15 12:26:00,84.0,62.0,29.90,West,281,1.0,2.0,47,0.00,,,0.00,,2013-05-15 17:26:00,
2013-05-15 12:34:00,85.0,61.0,29.89,SW,225,4.0,7.0,44,0.00,,,0.00,,2013-05-15 17:34:00,
2013-05-15 12:45:00,85.0,61.0,29.89,SW,225,4.0,7.0,44,0.00,,,0.00,,2013-05-15 17:45:00,
2013-05-15 13:05:00,85.0,60.0,29.89,SSW,209,1.0,4.0,43,0.00,,,0.00,,2013-05-15 18:05:00,
2013-05-15 13:14:00,86.0,60.0,29.90,West,268,4.0,7.0,42,0.00,,,0.00,,2013-05-15 18:14:00,
2013-05-15 13:26:00,86.0,60.0,29.90,West,268,4.0,7.0,42,0.00,,,0.00,,2013-05-15 18:26:00,
2013-05-15 13:35:00,86.0,62.0,29.88,WNW,290,2.0,4.0,44,0.00,,,0.00,,2013-05-15 18:35:00,
2013-05-15 13:46:00,86.0,62.0,29.88,WNW,290,2.0,4.0,44,0.00,,,0.00,,2013-05-15 18:46:00,
2013-05-15 13:57:00,86.0,59.0,29.88,SW,217,2.0,7.0,40,0.00,,,0.00,,2013-05-15 18:57:00,
2013-05-15 14:06:00,86.0,62.0,29.88,SW,224,4.0,7.0,44,0.00,,,0.00,,2013-05-15 19:06:00,
2013-05-15 14:28:00,86.0,60.0,29.86,SSW,207,1.0,1.0,42,0.00,,,0.00,,2013-05-15 19:28:00,
2013-05-15 14:44:00,87.0,59.0,29.86,SSE,148,4.0,4.0,39,0.00,,,0.00,,2013-05-15 19:44:00,
2013-05-15 14:56:00,86.0,60.0,29.88,SE,143,1.0,2.0,42,0.00,,,0.00,,2013-05-15 19:56:00,
2013-05-15 15:26:00,87.0,60.0,29.86,South,175,6.0,7.0,41,0.00,,,0.00,,2013-05-15 20:26:00,
2013-05-15 15:35:00,87.0,61.0,29.84,SW,220,2.0,5.0,42,0.00,,,0.00,,2013-05-15 20:35:00,
2013-05-15 15:45:00,87.0,61.0,29.84,SW,220,2.0,5.0,42,0.00,,,0.00,,2013-05-15 20:45:00,
2013-05-15 15:56:00,87.0,58.0,29.86,SSE,155,5.0,12.0,38,0.00,,,0.00,,2013-05-15 20:56:00,
2013-05-15 16:07:00,86.0,57.0,29.84,SSE,147,5.0,11.0,38,0.00,,,0.00,,2013-05-15 21:07:00,
2013-05-15 16:18:00,87.0,60.0,29.84,SSE,160,3.0,6.0,40,0.00,,,0.00,,2013-05-15 21:18:00,
2013-05-15 16:38:00,87.0,58.0,29.84,SSW,208,7.0,8.0,38,0.00,,,0.00,,2013-05-15 21:38:00,
2013-05-15 17:00:00,87.0,59.0,29.82,SW,220,2.0,6.0,39,0.00,,,0.00,,2013-05-15 22:00:00,
2013-05-15 17:08:00,86.0,60.0,29.81,SSW,201,7.0,11.0,41,0.00,,,0.00,,2013-05-15 22:08:00,
2013-05-15 17:16:00,86.0,60.0,29.81,SSW,201,7.0,11.0,41,0.00,,,0.00,,2013-05-15 22:16:00,
2013-05-15 17:27:00,86.0,60.0,29.81,SSW,209,7.0,11.0,41,0.00,,,0.00,,2013-05-15 22:27:00,
2013-05-15 17:37:00,85.0,60.0,29.81,SSW,208,7.0,14.0,43,0.00,,,0.00,,2013-05-15 22:37:00,
2013-05-15 17:47:00,85.0,60.0,29.81,SSW,208,7.0,14.0,43,0.00,,,0.00,,2013-05-15 22:47:00,
2013-05-15 17:59:00,85.0,60.0,29.81,SW,235,6.0,12.0,43,0.00,,,0.00,,2013-05-15 22:59:00,
2013-05-15 18:06:00,84.0,62.0,29.81,SSW,213,8.0,13.0,47,0.00,,,0.00,,2013-05-15 23:06:00,
2013-05-15 18:14:00,84.0,62.0,29.81,SSW,213,8.0,13.0,47,0.00,,,0.00,,2013-05-15 23:14:00,
2013-05-15 18:27:00,84.0,62.0,29.81,SSW,195,6.0,11.0,47,0.00,,,0.00,,2013-05-15 23:27:00,
2013-05-15 18:37:00,83.0,61.0,29.81,SSW,202,6.0,10.0,47,0.00,,,0.00,,2013-05-15 23:37:00,
2013-05-15 18:47:00,83.0,61.0,29.81,SSW,202,6.0,10.0,47,0.00,,,0.00,,2013-05-15 23:47:00,
2013-05-15 19:16:00,81.0,63.0,29.82,SSW,212,6.0,9.0,55,0.00,,,0.00,,2013-05-16 00:16:00,
2013-05-15 19:25:00,81.0,63.0,29.82,SSW,212,6.0,9.0,55,0.00,,,0.00,,2013-05-16 00:25:00,
2013-05-15 19:35:00,80.0,63.0,29.81,SW,214,5.0,12.0,57,0.00,,,0.00,,2013-05-16 00:35:00,
2013-05-15 19:58:00,79.0,61.0,29.83,SSW,202,7.0,12.0,55,0.00,,,0.00,,2013-05-16 00:58:00,
2013-05-15 20:05:00,79.0,62.0,29.82,SSW,200,5.0,10.0,56,0.00,,,0.00,,2013-05-16 01:05:00,
2013-05-15 20:14:00,78.0,64.0,29.84,SSW,202,6.0,11.0,62,0.00,,,0.00,,2013-05-16 01:14:00,
2013-05-15 20:27:00,78.0,64.0,29.84,SSW,202,6.0,11.0,62,0.00,,,0.00,,2013-05-16 01:27:00,
2013-05-15 20:35:00,76.0,63.0,29.85,SW,217,3.0,8.0,65,0.00,,,0.00,,2013-05-16 01:35:00,
2013-05-15 20:59:00,75.0,64.0,29.83,SW,236,4.0,10.0,68,0.00,,,0.00,,2013-05-16 01:59:00,
2013-05-15 21:15:00,74.0,63.0,29.83,SW,219,6.0,8.0,69,0.00,,,0.00,,2013-05-16 02:15:00,
2013-05-15 21:26:00,74.0,63.0,29.83,SW,219,6.0,8.0,69,0.00,,,0.00,,2013-05-16 02:26:00,
2013-05-15 21:36:00,73.0,63.0,29.84,SW,216,5.0,7.0,70,0.00,,,0.00,,2013-05-16 02:36:00,
2013-05-15 21:45:00,73.0,63.0,29.84,SW,216,5.0,7.0,70,0.00,,,0.00,,2013-05-16 02:45:00,
2013-05-15 21:55:00,73.0,63.0,29.84,SW,216,5.0,7.0,70,0.00,,,0.00,,2013-05-16 02:55:00,
2013-05-15 22:14:00,72.0,61.0,29.88,SW,236,2.0,8.0,68,0.00,,,0.00,,2013-05-16 03:14:00,
2013-05-15 22:25:00,72.0,61.0,29.88,SW,236,2.0,8.0,68,0.00,,,0.00,,2013-05-16 03:25:00,
2013-05-15 22:35:00,72.0,61.0,29.88,SSW,195,2.0,6.0,69,0.00,,,0.00,,2013-05-16 03:35:00,
2013-05-15 22:44:00,72.0,61.0,29.88,SSW,195,2.0,6.0,69,0.00,,,0.00,,2013-05-16 03:44:00,
2013-05-15 22:56:00,71.0,61.0,29.88,SW,214,1.0,5.0,70,0.00,,,0.00,,2013-05-16 03:56:00,
2013-05-15 23:02:00,71.0,62.0,29.88,SSW,198,4.0,7.0,73,0.00,,,0.00,,2013-05-16 04:02:00,
2013-05-15 23:12:00,71.0,62.0,29.88,SW,225,5.0,9.0,73,0.00,,,0.00,,2013-05-16 04:12:00,
2013-05-15 23:23:00,71.0,62.0,29.88,SW,225,5.0,9.0,73,0.00,,,0.00,,2013-05-16 04:23:00,
2013-05-15 23:33:00,71.0,62.0,29.88,SSW,205,5.0,6.0,74,0.00,,,0.00,,2013-05-16 04:33:00,
2013-05-15 23:42:00,71.0,62.0,29.88,SSW,205,5.0,6.0,74,0.00,,,0.00,,2013-05-16 04:42:00,
2013-05-15 23:53:00,71.0,63.0,29.89,SSW,200,3.0,8.0,75,0.00,,,0.00,,2013-05-16 04:53:00,